owner,sensor,date,latitude,longitude,vertical_datum,sea_water_practical_salinity,qcFlag 
ENP,ioos.station.NOAA.NDBC:LMRF1:1,2016-09-08T19:00:00Z,25.5560,-81.1690,1.5,3.57,1111122 
ENP,ioos.station.NOAA.NDBC:LMRF1:1,2016-09-08T20:00:00Z,25.5560,-81.1690,1.5,3.54,1111122 
ENP,ioos.station.NOAA.NDBC:LMRF1:1,2016-09-08T21:00:00Z,25.5560,-81.1690,1.5,3.43,1111122 
ENP,ioos.station.NOAA.NDBC:LMRF1:1,2016-09-08T22:00:00Z,25.5560,-81.1690,1.5,2.63,1111122 
ENP,ioos.station.NOAA.NDBC:LMRF1:1,2016-09-08T23:00:00Z,25.5560,-81.1690,1.5,2.57,1111122 
ENP,ioos.station.NOAA.NDBC:LMRF1:1,2016-09-09T00:00:00Z,25.5560,-81.1690,1.5,3.37,1111122 
ENP,ioos.station.NOAA.NDBC:LMRF1:1,2016-09-09T01:00:00Z,25.5560,-81.1690,1.5,4.13,1111122 
ENP,ioos.station.NOAA.NDBC:LMRF1:1,2016-09-09T04:00:00Z,25.5560,-81.1690,1.5,3.01,1111122 
ENP,ioos.station.NOAA.NDBC:LMRF1:1,2016-09-09T05:00:00Z,25.5560,-81.1690,1.5,2.8,1111122 
ENP,ioos.station.NOAA.NDBC:LMRF1:1,2016-09-09T07:00:00Z,25.5560,-81.1690,1.5,3.02,1111122 
ENP,ioos.station.NOAA.NDBC:LMRF1:1,2016-09-09T08:00:00Z,25.5560,-81.1690,1.5,3.12,1111122 
ENP,ioos.station.NOAA.NDBC:LMRF1:1,2016-09-09T09:00:00Z,25.5560,-81.1690,1.5,2.83,1111122 
ENP,ioos.station.NOAA.NDBC:LMRF1:1,2016-09-09T10:00:00Z,25.5560,-81.1690,1.5,2.73,1111122 
ENP,ioos.station.NOAA.NDBC:LMRF1:1,2016-09-09T11:00:00Z,25.5560,-81.1690,1.5,7.04,1111122 
ENP,ioos.station.NOAA.NDBC:LMRF1:1,2016-09-09T12:00:00Z,25.5560,-81.1690,1.5,7.11,1111122 
ENP,ioos.station.NOAA.NDBC:LMRF1:1,2016-09-09T13:00:00Z,25.5560,-81.1690,1.5,12.36,1111122 
ENP,ioos.station.NOAA.NDBC:LMRF1:1,2016-09-09T14:00:00Z,25.5560,-81.1690,1.5,7.41,1111122 
ENP,ioos.station.NOAA.NDBC:LMRF1:1,2016-09-09T15:00:00Z,25.5560,-81.1690,1.5,5.29,1111122 
ENP,ioos.station.NOAA.NDBC:LMRF1:1,2016-09-09T16:00:00Z,25.5560,-81.1690,1.5,4.55,1111122 
ENP,ioos.station.NOAA.NDBC:LMRF1:1,2016-09-09T17:00:00Z,25.5560,-81.1690,1.5,3.68,1111122 
ENP,ioos.station.NOAA.NDBC:LMRF1:1,2016-09-09T18:00:00Z,25.5560,-81.1690,1.5,3.4,1111122 
ENP,ioos.station.NOAA.NDBC:LMRF1:1,2016-09-09T19:00:00Z,25.5560,-81.1690,1.5,3.35,1111122 
ENP,ioos.station.NOAA.NDBC:LMRF1:1,2016-09-09T20:00:00Z,25.5560,-81.1690,1.5,3.32,1111122 
ENP,ioos.station.NOAA.NDBC:LMRF1:1,2016-09-09T21:00:00Z,25.5560,-81.1690,1.5,3.24,1111122 
ENP,ioos.station.NOAA.NDBC:LMRF1:1,2016-09-09T22:00:00Z,25.5560,-81.1690,1.5,3.04,1111122 
ENP,ioos.station.NOAA.NDBC:LMRF1:1,2016-09-09T23:00:00Z,25.5560,-81.1690,1.5,2.63,1111122 
ENP,ioos.station.NOAA.NDBC:LMRF1:1,2016-09-10T00:00:00Z,25.5560,-81.1690,1.5,2.3,1111122 
ENP,ioos.station.NOAA.NDBC:LMRF1:1,2016-09-10T01:00:00Z,25.5560,-81.1690,1.5,2.34,1111122 
ENP,ioos.station.NOAA.NDBC:LMRF1:1,2016-09-10T04:00:00Z,25.5560,-81.1690,1.5,2.47,1111122 
ENP,ioos.station.NOAA.NDBC:LMRF1:1,2016-09-10T07:00:00Z,25.5560,-81.1690,1.5,2.73,1111122 
ENP,ioos.station.NOAA.NDBC:LMRF1:1,2016-09-10T08:00:00Z,25.5560,-81.1690,1.5,2.92,1111122 
ENP,ioos.station.NOAA.NDBC:LMRF1:1,2016-09-10T09:00:00Z,25.5560,-81.1690,1.5,2.95,1111122 
ENP,ioos.station.NOAA.NDBC:LMRF1:1,2016-09-10T11:00:00Z,25.5560,-81.1690,1.5,2.4,1111122 
ENP,ioos.station.NOAA.NDBC:LMRF1:1,2016-09-10T12:00:00Z,25.5560,-81.1690,1.5,4.13,1111122 
ENP,ioos.station.NOAA.NDBC:LMRF1:1,2016-09-10T13:00:00Z,25.5560,-81.1690,1.5,7.93,1111122 
ENP,ioos.station.NOAA.NDBC:LMRF1:1,2016-09-10T14:00:00Z,25.5560,-81.1690,1.5,15.4,1111122 
ENP,ioos.station.NOAA.NDBC:LMRF1:1,2016-09-10T15:00:00Z,25.5560,-81.1690,1.5,15.13,1111122 
ENP,ioos.station.NOAA.NDBC:LMRF1:1,2016-09-10T16:00:00Z,25.5560,-81.1690,1.5,7.7,1111122 
ENP,ioos.station.NOAA.NDBC:LMRF1:1,2016-09-10T17:00:00Z,25.5560,-81.1690,1.5,6.36,1111122 
ENP,ioos.station.NOAA.NDBC:LMRF1:1,2016-09-10T18:00:00Z,25.5560,-81.1690,1.5,4.63,1111122 
ENP,ioos.station.NOAA.NDBC:LMRF1:1,2016-09-10T19:00:00Z,25.5560,-81.1690,1.5,3.78,1111122 
ENP,ioos.station.NOAA.NDBC:LMRF1:1,2016-09-10T20:00:00Z,25.5560,-81.1690,1.5,3.29,1111122 
ENP,ioos.station.NOAA.NDBC:LMRF1:1,2016-09-10T21:00:00Z,25.5560,-81.1690,1.5,3.2,1111122 
ENP,ioos.station.NOAA.NDBC:LMRF1:1,2016-09-10T22:00:00Z,25.5560,-81.1690,1.5,3.06,1111122 
ENP,ioos.station.NOAA.NDBC:LMRF1:1,2016-09-10T23:00:00Z,25.5560,-81.1690,1.5,2.9,1111122 
ENP,ioos.station.NOAA.NDBC:LMRF1:1,2016-09-11T00:00:00Z,25.5560,-81.1690,1.5,2.2,1111122 
ENP,ioos.station.NOAA.NDBC:LMRF1:1,2016-09-11T01:00:00Z,25.5560,-81.1690,1.5,2.29,1111122 
ENP,ioos.station.NOAA.NDBC:LMRF1:1,2016-09-11T04:00:00Z,25.5560,-81.1690,1.5,9.59,1111122 
ENP,ioos.station.NOAA.NDBC:LMRF1:1,2016-09-11T05:00:00Z,25.5560,-81.1690,1.5,8.45,1111122 
ENP,ioos.station.NOAA.NDBC:LMRF1:1,2016-09-11T07:00:00Z,25.5560,-81.1690,1.5,3.94,1111122 
ENP,ioos.station.NOAA.NDBC:LMRF1:1,2016-09-11T08:00:00Z,25.5560,-81.1690,1.5,3.47,1111122 
ENP,ioos.station.NOAA.NDBC:LMRF1:1,2016-09-11T09:00:00Z,25.5560,-81.1690,1.5,3.21,1111122 
ENP,ioos.station.NOAA.NDBC:LMRF1:1,2016-09-11T10:00:00Z,25.5560,-81.1690,1.5,2.94,1111122 
ENP,ioos.station.NOAA.NDBC:LMRF1:1,2016-09-11T12:00:00Z,25.5560,-81.1690,1.5,4.84,1111122 
ENP,ioos.station.NOAA.NDBC:LMRF1:1,2016-09-11T13:00:00Z,25.5560,-81.1690,1.5,10.48,1111122 
ENP,ioos.station.NOAA.NDBC:LMRF1:1,2016-09-11T14:00:00Z,25.5560,-81.1690,1.5,16.26,1111122 
ENP,ioos.station.NOAA.NDBC:LMRF1:1,2016-09-11T15:00:00Z,25.5560,-81.1690,1.5,21.16,1111122 
ENP,ioos.station.NOAA.NDBC:LMRF1:1,2016-09-11T16:00:00Z,25.5560,-81.1690,1.5,21.03,1111122 
ENP,ioos.station.NOAA.NDBC:LMRF1:1,2016-09-11T17:00:00Z,25.5560,-81.1690,1.5,11.97,1111122 
ENP,ioos.station.NOAA.NDBC:LMRF1:1,2016-09-11T18:00:00Z,25.5560,-81.1690,1.5,9.21,1111122 
ENP,ioos.station.NOAA.NDBC:LMRF1:1,2016-09-11T19:00:00Z,25.5560,-81.1690,1.5,7.74,1111122 
ENP,ioos.station.NOAA.NDBC:LMRF1:1,2016-09-11T20:00:00Z,25.5560,-81.1690,1.5,5.93,1111122 
ENP,ioos.station.NOAA.NDBC:LMRF1:1,2016-09-11T21:00:00Z,25.5560,-81.1690,1.5,4.96,1111122 
ENP,ioos.station.NOAA.NDBC:LMRF1:1,2016-09-11T22:00:00Z,25.5560,-81.1690,1.5,4.11,1111122 
ENP,ioos.station.NOAA.NDBC:LMRF1:1,2016-09-11T23:00:00Z,25.5560,-81.1690,1.5,3.61,1111122 
ENP,ioos.station.NOAA.NDBC:LMRF1:1,2016-09-12T00:00:00Z,25.5560,-81.1690,1.5,3.23,1111122 
ENP,ioos.station.NOAA.NDBC:LMRF1:1,2016-09-12T01:00:00Z,25.5560,-81.1690,1.5,2.93,1111122 
ENP,ioos.station.NOAA.NDBC:LMRF1:1,2016-09-12T02:00:00Z,25.5560,-81.1690,1.5,2.79,1111122 
ENP,ioos.station.NOAA.NDBC:LMRF1:1,2016-09-12T04:00:00Z,25.5560,-81.1690,1.5,4.46,1111122 
ENP,ioos.station.NOAA.NDBC:LMRF1:1,2016-09-12T06:00:00Z,25.5560,-81.1690,1.5,5.28,1111122 
ENP,ioos.station.NOAA.NDBC:LMRF1:1,2016-09-12T07:00:00Z,25.5560,-81.1690,1.5,3.57,1111122 
ENP,ioos.station.NOAA.NDBC:LMRF1:1,2016-09-12T08:00:00Z,25.5560,-81.1690,1.5,3.41,1111122 
ENP,ioos.station.NOAA.NDBC:LMRF1:1,2016-09-12T09:00:00Z,25.5560,-81.1690,1.5,3.32,1111122 
ENP,ioos.station.NOAA.NDBC:LMRF1:1,2016-09-12T11:00:00Z,25.5560,-81.1690,1.5,2.86,1111122 
ENP,ioos.station.NOAA.NDBC:LMRF1:1,2016-09-12T12:00:00Z,25.5560,-81.1690,1.5,2.72,1111122 
ENP,ioos.station.NOAA.NDBC:LMRF1:1,2016-09-12T13:00:00Z,25.5560,-81.1690,1.5,2.52,1111122 
ENP,ioos.station.NOAA.NDBC:LMRF1:1,2016-09-12T14:00:00Z,25.5560,-81.1690,1.5,6.63,1111122 
ENP,ioos.station.NOAA.NDBC:LMRF1:1,2016-09-12T15:00:00Z,25.5560,-81.1690,1.5,8.05,1111122 
ENP,ioos.station.NOAA.NDBC:LMRF1:1,2016-09-12T16:00:00Z,25.5560,-81.1690,1.5,18.15,1111122 
ENP,ioos.station.NOAA.NDBC:LMRF1:1,2016-09-12T17:00:00Z,25.5560,-81.1690,1.5,18.02,1111122 
ENP,ioos.station.NOAA.NDBC:LMRF1:1,2016-09-12T18:00:00Z,25.5560,-81.1690,1.5,8.12,1111122 
ENP,ioos.station.NOAA.NDBC:LMRF1:1,2016-09-12T19:00:00Z,25.5560,-81.1690,1.5,6.34,1111122 
ENP,ioos.station.NOAA.NDBC:LMRF1:1,2016-09-12T20:00:00Z,25.5560,-81.1690,1.5,5.19,1111122 
ENP,ioos.station.NOAA.NDBC:LMRF1:1,2016-09-12T21:00:00Z,25.5560,-81.1690,1.5,4.6,1111122 
ENP,ioos.station.NOAA.NDBC:LMRF1:1,2016-09-12T22:00:00Z,25.5560,-81.1690,1.5,3.84,1111122 
ENP,ioos.station.NOAA.NDBC:LMRF1:1,2016-09-12T23:00:00Z,25.5560,-81.1690,1.5,3.34,1111122 
ENP,ioos.station.NOAA.NDBC:LMRF1:1,2016-09-13T00:00:00Z,25.5560,-81.1690,1.5,3.1,1111122 
ENP,ioos.station.NOAA.NDBC:LMRF1:1,2016-09-13T01:00:00Z,25.5560,-81.1690,1.5,2.82,1111122 
ENP,ioos.station.NOAA.NDBC:LMRF1:1,2016-09-13T02:00:00Z,25.5560,-81.1690,1.5,2.16,1111122 
ENP,ioos.station.NOAA.NDBC:LMRF1:1,2016-09-13T04:00:00Z,25.5560,-81.1690,1.5,3.85,1111122 
ENP,ioos.station.NOAA.NDBC:LMRF1:1,2016-09-13T05:00:00Z,25.5560,-81.1690,1.5,9.08,1111122 
ENP,ioos.station.NOAA.NDBC:LMRF1:1,2016-09-13T07:00:00Z,25.5560,-81.1690,1.5,11.97,1111122 
ENP,ioos.station.NOAA.NDBC:LMRF1:1,2016-09-13T08:00:00Z,25.5560,-81.1690,1.5,6.1,1111122 
ENP,ioos.station.NOAA.NDBC:LMRF1:1,2016-09-13T09:00:00Z,25.5560,-81.1690,1.5,4.35,1111122 
ENP,ioos.station.NOAA.NDBC:LMRF1:1,2016-09-13T10:00:00Z,25.5560,-81.1690,1.5,3.3,1111122 
ENP,ioos.station.NOAA.NDBC:LMRF1:1,2016-09-13T11:00:00Z,25.5560,-81.1690,1.5,3.6,1111122 
ENP,ioos.station.NOAA.NDBC:LMRF1:1,2016-09-13T12:00:00Z,25.5560,-81.1690,1.5,3.41,1111122 
ENP,ioos.station.NOAA.NDBC:LMRF1:1,2016-09-13T13:00:00Z,25.5560,-81.1690,1.5,3.38,1111122 
ENP,ioos.station.NOAA.NDBC:LMRF1:1,2016-09-13T14:00:00Z,25.5560,-81.1690,1.5,5.55,1111122 
ENP,ioos.station.NOAA.NDBC:LMRF1:1,2016-09-13T15:00:00Z,25.5560,-81.1690,1.5,9.21,1111122 
ENP,ioos.station.NOAA.NDBC:LMRF1:1,2016-09-13T16:00:00Z,25.5560,-81.1690,1.5,16.33,1111122 
ENP,ioos.station.NOAA.NDBC:LMRF1:1,2016-09-13T17:00:00Z,25.5560,-81.1690,1.5,19.52,1111122 
ENP,ioos.station.NOAA.NDBC:LMRF1:1,2016-09-13T18:00:00Z,25.5560,-81.1690,1.5,20.48,1111122 
ENP,ioos.station.NOAA.NDBC:LMRF1:1,2016-09-13T19:00:00Z,25.5560,-81.1690,1.5,20.61,1111122 
ENP,ioos.station.NOAA.NDBC:LMRF1:1,2016-09-13T20:00:00Z,25.5560,-81.1690,1.5,17.21,1111122 
ENP,ioos.station.NOAA.NDBC:LMRF1:1,2016-09-13T21:00:00Z,25.5560,-81.1690,1.5,12.69,1111122 
ENP,ioos.station.NOAA.NDBC:LMRF1:1,2016-09-13T22:00:00Z,25.5560,-81.1690,1.5,9.78,1111122 
ENP,ioos.station.NOAA.NDBC:LMRF1:1,2016-09-13T23:00:00Z,25.5560,-81.1690,1.5,8.17,1111122 
ENP,ioos.station.NOAA.NDBC:LMRF1:1,2016-09-14T00:00:00Z,25.5560,-81.1690,1.5,6.17,1111122 
ENP,ioos.station.NOAA.NDBC:LMRF1:1,2016-09-14T01:00:00Z,25.5560,-81.1690,1.5,5.04,1111122 
ENP,ioos.station.NOAA.NDBC:LMRF1:1,2016-09-14T02:00:00Z,25.5560,-81.1690,1.5,4.59,1111122 
ENP,ioos.station.NOAA.NDBC:LMRF1:1,2016-09-14T04:00:00Z,25.5560,-81.1690,1.5,6.19,1111122 
ENP,ioos.station.NOAA.NDBC:LMRF1:1,2016-09-14T05:00:00Z,25.5560,-81.1690,1.5,9.21,1111122 
ENP,ioos.station.NOAA.NDBC:LMRF1:1,2016-09-14T07:00:00Z,25.5560,-81.1690,1.5,16.47,1111122 
ENP,ioos.station.NOAA.NDBC:LMRF1:1,2016-09-14T08:00:00Z,25.5560,-81.1690,1.5,10.04,1111122 
ENP,ioos.station.NOAA.NDBC:LMRF1:1,2016-09-14T09:00:00Z,25.5560,-81.1690,1.5,8.64,1111122 
ENP,ioos.station.NOAA.NDBC:LMRF1:1,2016-09-14T11:00:00Z,25.5560,-81.1690,1.5,5.99,1111122 
ENP,ioos.station.NOAA.NDBC:LMRF1:1,2016-09-14T12:00:00Z,25.5560,-81.1690,1.5,5.27,1111122 
ENP,ioos.station.NOAA.NDBC:LMRF1:1,2016-09-14T13:00:00Z,25.5560,-81.1690,1.5,4.81,1111122 
ENP,ioos.station.NOAA.NDBC:LMRF1:1,2016-09-14T14:00:00Z,25.5560,-81.1690,1.5,4.57,1111122 
ENP,ioos.station.NOAA.NDBC:LMRF1:1,2016-09-14T15:00:00Z,25.5560,-81.1690,1.5,4.88,1111122 
ENP,ioos.station.NOAA.NDBC:LMRF1:1,2016-09-14T16:00:00Z,25.5560,-81.1690,1.5,9.21,1111122 
ENP,ioos.station.NOAA.NDBC:LMRF1:1,2016-09-14T17:00:00Z,25.5560,-81.1690,1.5,16.13,1111122 
ENP,ioos.station.NOAA.NDBC:LMRF1:1,2016-09-14T18:00:00Z,25.5560,-81.1690,1.5,18.83,1111122 
ENP,ioos.station.NOAA.NDBC:LMRF1:1,2016-09-14T19:00:00Z,25.5560,-81.1690,1.5,19.86,1111122 
ENP,ioos.station.NOAA.NDBC:LMRF1:1,2016-09-14T20:00:00Z,25.5560,-81.1690,1.5,13.47,1111122 
ENP,ioos.station.NOAA.NDBC:LMRF1:1,2016-09-14T21:00:00Z,25.5560,-81.1690,1.5,10.23,1111122 
ENP,ioos.station.NOAA.NDBC:LMRF1:1,2016-09-14T22:00:00Z,25.5560,-81.1690,1.5,8.51,1111122 
ENP,ioos.station.NOAA.NDBC:LMRF1:1,2016-09-14T23:00:00Z,25.5560,-81.1690,1.5,7.67,1111122 
ENP,ioos.station.NOAA.NDBC:LMRF1:1,2016-09-15T00:00:00Z,25.5560,-81.1690,1.5,6.54,1111122 
ENP,ioos.station.NOAA.NDBC:LMRF1:1,2016-09-15T01:00:00Z,25.5560,-81.1690,1.5,5.59,1111122 
ENP,ioos.station.NOAA.NDBC:LMRF1:1,2016-09-15T02:00:00Z,25.5560,-81.1690,1.5,5.16,1111122 
ENP,ioos.station.NOAA.NDBC:LMRF1:1,2016-09-15T04:00:00Z,25.5560,-81.1690,1.5,4.39,1111122 
ENP,ioos.station.NOAA.NDBC:LMRF1:1,2016-09-15T05:00:00Z,25.5560,-81.1690,1.5,5.79,1111122 
ENP,ioos.station.NOAA.NDBC:LMRF1:1,2016-09-15T07:00:00Z,25.5560,-81.1690,1.5,12.3,1111122 
ENP,ioos.station.NOAA.NDBC:LMRF1:1,2016-09-15T08:00:00Z,25.5560,-81.1690,1.5,12.95,1111122 
ENP,ioos.station.NOAA.NDBC:LMRF1:1,2016-09-15T09:00:00Z,25.5560,-81.1690,1.5,7.24,1111122 
ENP,ioos.station.NOAA.NDBC:LMRF1:1,2016-09-15T10:00:00Z,25.5560,-81.1690,1.5,5.52,1111122 
ENP,ioos.station.NOAA.NDBC:LMRF1:1,2016-09-15T11:00:00Z,25.5560,-81.1690,1.5,5.75,1111122 
ENP,ioos.station.NOAA.NDBC:LMRF1:1,2016-09-15T12:00:00Z,25.5560,-81.1690,1.5,5.14,1111122 
ENP,ioos.station.NOAA.NDBC:LMRF1:1,2016-09-15T13:00:00Z,25.5560,-81.1690,1.5,4.49,1111122 
ENP,ioos.station.NOAA.NDBC:LMRF1:1,2016-09-15T14:00:00Z,25.5560,-81.1690,1.5,4.08,1111122 
ENP,ioos.station.NOAA.NDBC:LMRF1:1,2016-09-15T15:00:00Z,25.5560,-81.1690,1.5,3.4,1111122 
ENP,ioos.station.NOAA.NDBC:LMRF1:1,2016-09-15T16:00:00Z,25.5560,-81.1690,1.5,3.82,1111122 
ENP,ioos.station.NOAA.NDBC:LMRF1:1,2016-09-15T17:00:00Z,25.5560,-81.1690,1.5,5.83,1111122 
ENP,ioos.station.NOAA.NDBC:LMRF1:1,2016-09-15T18:00:00Z,25.5560,-81.1690,1.5,14.0,1111122 
ENP,ioos.station.NOAA.NDBC:LMRF1:1,2016-09-15T19:00:00Z,25.5560,-81.1690,1.5,17.54,1111122 
ENP,ioos.station.NOAA.NDBC:LMRF1:1,2016-09-15T20:00:00Z,25.5560,-81.1690,1.5,17.88,1111122 
ENP,ioos.station.NOAA.NDBC:LMRF1:1,2016-09-15T21:00:00Z,25.5560,-81.1690,1.5,11.52,1111122 
ENP,ioos.station.NOAA.NDBC:LMRF1:1,2016-09-15T22:00:00Z,25.5560,-81.1690,1.5,7.83,1111122 
ENP,ioos.station.NOAA.NDBC:LMRF1:1,2016-09-15T23:00:00Z,25.5560,-81.1690,1.5,7.01,1111122 
ENP,ioos.station.NOAA.NDBC:LMRF1:1,2016-09-16T00:00:00Z,25.5560,-81.1690,1.5,6.72,1111122 
ENP,ioos.station.NOAA.NDBC:LMRF1:1,2016-09-16T01:00:00Z,25.5560,-81.1690,1.5,5.76,1111122 
ENP,ioos.station.NOAA.NDBC:LMRF1:1,2016-09-16T04:00:00Z,25.5560,-81.1690,1.5,3.87,1111122 
ENP,ioos.station.NOAA.NDBC:LMRF1:1,2016-09-16T07:00:00Z,25.5560,-81.1690,1.5,11.84,1111122 
ENP,ioos.station.NOAA.NDBC:LMRF1:1,2016-09-16T08:00:00Z,25.5560,-81.1690,1.5,14.46,1111122 
ENP,ioos.station.NOAA.NDBC:LMRF1:1,2016-09-16T09:00:00Z,25.5560,-81.1690,1.5,9.84,1111122 
ENP,ioos.station.NOAA.NDBC:LMRF1:1,2016-09-16T11:00:00Z,25.5560,-81.1690,1.5,5.66,1111122 
ENP,ioos.station.NOAA.NDBC:LMRF1:1,2016-09-16T12:00:00Z,25.5560,-81.1690,1.5,5.86,1111122 
ENP,ioos.station.NOAA.NDBC:LMRF1:1,2016-09-16T13:00:00Z,25.5560,-81.1690,1.5,5.19,1111122 
ENP,ioos.station.NOAA.NDBC:LMRF1:1,2016-09-16T14:00:00Z,25.5560,-81.1690,1.5,4.35,1111122 
ENP,ioos.station.NOAA.NDBC:LMRF1:1,2016-09-16T15:00:00Z,25.5560,-81.1690,1.5,3.94,1111122 
ENP,ioos.station.NOAA.NDBC:LMRF1:1,2016-09-16T16:00:00Z,25.5560,-81.1690,1.5,3.43,1111122 
ENP,ioos.station.NOAA.NDBC:LMRF1:1,2016-09-16T17:00:00Z,25.5560,-81.1690,1.5,4.39,1111122 
ENP,ioos.station.NOAA.NDBC:LMRF1:1,2016-09-16T18:00:00Z,25.5560,-81.1690,1.5,9.02,1111122 
ENP,ioos.station.NOAA.NDBC:LMRF1:1,2016-09-16T20:00:00Z,25.5560,-81.1690,1.5,18.7,1111122 
ENP,ioos.station.NOAA.NDBC:LMRF1:1,2016-09-16T21:00:00Z,25.5560,-81.1690,1.5,19.11,1111122 
ENP,ioos.station.NOAA.NDBC:LMRF1:1,2016-09-16T22:00:00Z,25.5560,-81.1690,1.5,14.86,1111122 
ENP,ioos.station.NOAA.NDBC:LMRF1:1,2016-09-16T23:00:00Z,25.5560,-81.1690,1.5,10.1,1111122 
ENP,ioos.station.NOAA.NDBC:LMRF1:1,2016-09-17T00:00:00Z,25.5560,-81.1690,1.5,9.02,1111122 
ENP,ioos.station.NOAA.NDBC:LMRF1:1,2016-09-17T01:00:00Z,25.5560,-81.1690,1.5,7.62,1111122 
ENP,ioos.station.NOAA.NDBC:LMRF1:1,2016-09-17T02:00:00Z,25.5560,-81.1690,1.5,6.13,1111122 
ENP,ioos.station.NOAA.NDBC:LMRF1:1,2016-09-17T04:00:00Z,25.5560,-81.1690,1.5,4.97,1111122 
ENP,ioos.station.NOAA.NDBC:LMRF1:1,2016-09-17T05:00:00Z,25.5560,-81.1690,1.5,4.67,1111122 
ENP,ioos.station.NOAA.NDBC:LMRF1:1,2016-09-17T07:00:00Z,25.5560,-81.1690,1.5,10.16,1111122 
ENP,ioos.station.NOAA.NDBC:LMRF1:1,2016-09-17T08:00:00Z,25.5560,-81.1690,1.5,15.73,1111122 
ENP,ioos.station.NOAA.NDBC:LMRF1:1,2016-09-17T09:00:00Z,25.5560,-81.1690,1.5,16.67,1111122 
ENP,ioos.station.NOAA.NDBC:LMRF1:1,2016-09-17T10:00:00Z,25.5560,-81.1690,1.5,10.61,1111122 
ENP,ioos.station.NOAA.NDBC:LMRF1:1,2016-09-17T11:00:00Z,25.5560,-81.1690,1.5,7.13,1111122 
ENP,ioos.station.NOAA.NDBC:LMRF1:1,2016-09-17T12:00:00Z,25.5560,-81.1690,1.5,6.91,1111122 
ENP,ioos.station.NOAA.NDBC:LMRF1:1,2016-09-17T13:00:00Z,25.5560,-81.1690,1.5,6.69,1111122 
ENP,ioos.station.NOAA.NDBC:LMRF1:1,2016-09-17T14:00:00Z,25.5560,-81.1690,1.5,5.84,1111122 
ENP,ioos.station.NOAA.NDBC:LMRF1:1,2016-09-17T15:00:00Z,25.5560,-81.1690,1.5,4.93,1111122 
ENP,ioos.station.NOAA.NDBC:LMRF1:1,2016-09-17T16:00:00Z,25.5560,-81.1690,1.5,4.39,1111122 
ENP,ioos.station.NOAA.NDBC:LMRF1:1,2016-09-17T17:00:00Z,25.5560,-81.1690,1.5,4.12,1111122 
ENP,ioos.station.NOAA.NDBC:LMRF1:1,2016-09-17T18:00:00Z,25.5560,-81.1690,1.5,5.25,1111122 
ENP,ioos.station.NOAA.NDBC:LMRF1:1,2016-09-17T19:00:00Z,25.5560,-81.1690,1.5,9.46,1111122 
ENP,ioos.station.NOAA.NDBC:LMRF1:1,2016-09-17T20:00:00Z,25.5560,-81.1690,1.5,15.26,1111122 
ENP,ioos.station.NOAA.NDBC:LMRF1:1,2016-09-17T21:00:00Z,25.5560,-81.1690,1.5,17.88,1111122 
ENP,ioos.station.NOAA.NDBC:LMRF1:1,2016-09-17T22:00:00Z,25.5560,-81.1690,1.5,18.29,1111122 
ENP,ioos.station.NOAA.NDBC:LMRF1:1,2016-09-17T23:00:00Z,25.5560,-81.1690,1.5,13.8,1111122 
ENP,ioos.station.NOAA.NDBC:LMRF1:1,2016-09-18T00:00:00Z,25.5560,-81.1690,1.5,8.77,1111122 
ENP,ioos.station.NOAA.NDBC:LMRF1:1,2016-09-18T01:00:00Z,25.5560,-81.1690,1.5,8.51,1111122 
ENP,ioos.station.NOAA.NDBC:LMRF1:1,2016-09-18T02:00:00Z,25.5560,-81.1690,1.5,7.7,1111122 
ENP,ioos.station.NOAA.NDBC:LMRF1:1,2016-09-18T04:00:00Z,25.5560,-81.1690,1.5,5.58,1111122 
ENP,ioos.station.NOAA.NDBC:LMRF1:1,2016-09-18T07:00:00Z,25.5560,-81.1690,1.5,7.62,1111122 
ENP,ioos.station.NOAA.NDBC:LMRF1:1,2016-09-18T08:00:00Z,25.5560,-81.1690,1.5,14.13,1111122 
ENP,ioos.station.NOAA.NDBC:LMRF1:1,2016-09-18T09:00:00Z,25.5560,-81.1690,1.5,16.94,1111122 
ENP,ioos.station.NOAA.NDBC:LMRF1:1,2016-09-18T10:00:00Z,25.5560,-81.1690,1.5,17.0,1111122 
ENP,ioos.station.NOAA.NDBC:LMRF1:1,2016-09-18T12:00:00Z,25.5560,-81.1690,1.5,8.14,1111122 
ENP,ioos.station.NOAA.NDBC:LMRF1:1,2016-09-18T13:00:00Z,25.5560,-81.1690,1.5,8.01,1111122 
ENP,ioos.station.NOAA.NDBC:LMRF1:1,2016-09-18T14:00:00Z,25.5560,-81.1690,1.5,7.6,1111122 
ENP,ioos.station.NOAA.NDBC:LMRF1:1,2016-09-18T15:00:00Z,25.5560,-81.1690,1.5,6.32,1111122 
ENP,ioos.station.NOAA.NDBC:LMRF1:1,2016-09-18T16:00:00Z,25.5560,-81.1690,1.5,5.61,1111122 
ENP,ioos.station.NOAA.NDBC:LMRF1:1,2016-09-18T17:00:00Z,25.5560,-81.1690,1.5,5.09,1111122 
ENP,ioos.station.NOAA.NDBC:LMRF1:1,2016-09-18T18:00:00Z,25.5560,-81.1690,1.5,4.82,1111122 
ENP,ioos.station.NOAA.NDBC:LMRF1:1,2016-09-18T19:00:00Z,25.5560,-81.1690,1.5,6.71,1111122 
ENP,ioos.station.NOAA.NDBC:LMRF1:1,2016-09-18T20:00:00Z,25.5560,-81.1690,1.5,12.62,1111122 
ENP,ioos.station.NOAA.NDBC:LMRF1:1,2016-09-18T21:00:00Z,25.5560,-81.1690,1.5,16.26,1111122 
ENP,ioos.station.NOAA.NDBC:LMRF1:1,2016-09-18T22:00:00Z,25.5560,-81.1690,1.5,18.09,1111122 
ENP,ioos.station.NOAA.NDBC:LMRF1:1,2016-09-18T23:00:00Z,25.5560,-81.1690,1.5,16.2,1111122 
ENP,ioos.station.NOAA.NDBC:LMRF1:1,2016-09-19T00:00:00Z,25.5560,-81.1690,1.5,13.15,1111122 
ENP,ioos.station.NOAA.NDBC:LMRF1:1,2016-09-19T01:00:00Z,25.5560,-81.1690,1.5,9.53,1111122 
ENP,ioos.station.NOAA.NDBC:LMRF1:1,2016-09-19T02:00:00Z,25.5560,-81.1690,1.5,9.53,1111122 
ENP,ioos.station.NOAA.NDBC:LMRF1:1,2016-09-19T04:00:00Z,25.5560,-81.1690,1.5,6.79,1111122 
ENP,ioos.station.NOAA.NDBC:LMRF1:1,2016-09-19T05:00:00Z,25.5560,-81.1690,1.5,6.25,1111122 
ENP,ioos.station.NOAA.NDBC:LMRF1:1,2016-09-19T07:00:00Z,25.5560,-81.1690,1.5,7.35,1111122 
ENP,ioos.station.NOAA.NDBC:LMRF1:1,2016-09-19T08:00:00Z,25.5560,-81.1690,1.5,11.06,1111122 
ENP,ioos.station.NOAA.NDBC:LMRF1:1,2016-09-19T09:00:00Z,25.5560,-81.1690,1.5,15.8,1111122 
ENP,ioos.station.NOAA.NDBC:LMRF1:1,2016-09-19T11:00:00Z,25.5560,-81.1690,1.5,14.46,1111122 
ENP,ioos.station.NOAA.NDBC:LMRF1:1,2016-09-19T12:00:00Z,25.5560,-81.1690,1.5,11.45,1111122 
ENP,ioos.station.NOAA.NDBC:LMRF1:1,2016-09-19T13:00:00Z,25.5560,-81.1690,1.5,9.34,1111122 
ENP,ioos.station.NOAA.NDBC:LMRF1:1,2016-09-19T14:00:00Z,25.5560,-81.1690,1.5,9.15,1111122 
ENP,ioos.station.NOAA.NDBC:LMRF1:1,2016-09-19T15:00:00Z,25.5560,-81.1690,1.5,8.0,1111122 
ENP,ioos.station.NOAA.NDBC:LMRF1:1,2016-09-19T16:00:00Z,25.5560,-81.1690,1.5,6.71,1111122 
ENP,ioos.station.NOAA.NDBC:LMRF1:1,2016-09-19T17:00:00Z,25.5560,-81.1690,1.5,6.0,1111122 
ENP,ioos.station.NOAA.NDBC:LMRF1:1,2016-09-19T18:00:00Z,25.5560,-81.1690,1.5,5.51,1111122 
ENP,ioos.station.NOAA.NDBC:LMRF1:1,2016-09-19T19:00:00Z,25.5560,-81.1690,1.5,5.31,1111122 
ENP,ioos.station.NOAA.NDBC:LMRF1:1,2016-09-19T20:00:00Z,25.5560,-81.1690,1.5,6.61,1111122 
ENP,ioos.station.NOAA.NDBC:LMRF1:1,2016-09-19T21:00:00Z,25.5560,-81.1690,1.5,10.42,1111122 
ENP,ioos.station.NOAA.NDBC:LMRF1:1,2016-09-19T22:00:00Z,25.5560,-81.1690,1.5,15.2,1111122 
ENP,ioos.station.NOAA.NDBC:LMRF1:1,2016-09-19T23:00:00Z,25.5560,-81.1690,1.5,16.26,1111122 
ENP,ioos.station.NOAA.NDBC:LMRF1:1,2016-09-20T00:00:00Z,25.5560,-81.1690,1.5,13.28,1111122 
ENP,ioos.station.NOAA.NDBC:LMRF1:1,2016-09-20T01:00:00Z,25.5560,-81.1690,1.5,9.59,1111122 
ENP,ioos.station.NOAA.NDBC:LMRF1:1,2016-09-20T02:00:00Z,25.5560,-81.1690,1.5,7.73,1111122 
ENP,ioos.station.NOAA.NDBC:LMRF1:1,2016-09-20T04:00:00Z,25.5560,-81.1690,1.5,7.24,1111122 
ENP,ioos.station.NOAA.NDBC:LMRF1:1,2016-09-20T05:00:00Z,25.5560,-81.1690,1.5,6.34,1111122 
ENP,ioos.station.NOAA.NDBC:LMRF1:1,2016-09-20T07:00:00Z,25.5560,-81.1690,1.5,5.77,1111122 
ENP,ioos.station.NOAA.NDBC:LMRF1:1,2016-09-20T08:00:00Z,25.5560,-81.1690,1.5,7.11,1111122 
ENP,ioos.station.NOAA.NDBC:LMRF1:1,2016-09-20T09:00:00Z,25.5560,-81.1690,1.5,11.78,1111122 
ENP,ioos.station.NOAA.NDBC:LMRF1:1,2016-09-20T10:00:00Z,25.5560,-81.1690,1.5,15.73,1111122 
ENP,ioos.station.NOAA.NDBC:LMRF1:1,2016-09-20T11:00:00Z,25.5560,-81.1690,1.5,17.0,1111122 
ENP,ioos.station.NOAA.NDBC:LMRF1:1,2016-09-20T12:00:00Z,25.5560,-81.1690,1.5,12.04,1111122 
ENP,ioos.station.NOAA.NDBC:LMRF1:1,2016-09-20T13:00:00Z,25.5560,-81.1690,1.5,8.77,1111122 
ENP,ioos.station.NOAA.NDBC:LMRF1:1,2016-09-20T14:00:00Z,25.5560,-81.1690,1.5,8.17,1111122 
ENP,ioos.station.NOAA.NDBC:LMRF1:1,2016-09-20T15:00:00Z,25.5560,-81.1690,1.5,8.08,1111122 
ENP,ioos.station.NOAA.NDBC:LMRF1:1,2016-09-20T16:00:00Z,25.5560,-81.1690,1.5,6.97,1111122 
ENP,ioos.station.NOAA.NDBC:LMRF1:1,2016-09-20T17:00:00Z,25.5560,-81.1690,1.5,6.08,1111122 
ENP,ioos.station.NOAA.NDBC:LMRF1:1,2016-09-20T18:00:00Z,25.5560,-81.1690,1.5,5.32,1111122 
ENP,ioos.station.NOAA.NDBC:LMRF1:1,2016-09-20T19:00:00Z,25.5560,-81.1690,1.5,5.02,1111122 
ENP,ioos.station.NOAA.NDBC:LMRF1:1,2016-09-20T20:00:00Z,25.5560,-81.1690,1.5,4.78,1111122 
ENP,ioos.station.NOAA.NDBC:LMRF1:1,2016-09-20T21:00:00Z,25.5560,-81.1690,1.5,5.49,1111122 
ENP,ioos.station.NOAA.NDBC:LMRF1:1,2016-09-20T22:00:00Z,25.5560,-81.1690,1.5,7.72,1111122 
ENP,ioos.station.NOAA.NDBC:LMRF1:1,2016-09-20T23:00:00Z,25.5560,-81.1690,1.5,11.39,1111122 
ENP,ioos.station.NOAA.NDBC:LMRF1:1,2016-09-21T00:00:00Z,25.5560,-81.1690,1.5,12.43,1111122 
ENP,ioos.station.NOAA.NDBC:LMRF1:1,2016-09-21T01:00:00Z,25.5560,-81.1690,1.5,8.77,1111122 
ENP,ioos.station.NOAA.NDBC:LMRF1:1,2016-09-21T04:00:00Z,25.5560,-81.1690,1.5,5.96,1111122 
ENP,ioos.station.NOAA.NDBC:LMRF1:1,2016-09-21T07:00:00Z,25.5560,-81.1690,1.5,4.21,1111122 
ENP,ioos.station.NOAA.NDBC:LMRF1:1,2016-09-21T08:00:00Z,25.5560,-81.1690,1.5,4.35,1111122 
ENP,ioos.station.NOAA.NDBC:LMRF1:1,2016-09-21T09:00:00Z,25.5560,-81.1690,1.5,5.25,1111122 
ENP,ioos.station.NOAA.NDBC:LMRF1:1,2016-09-21T11:00:00Z,25.5560,-81.1690,1.5,14.13,1111122 
ENP,ioos.station.NOAA.NDBC:LMRF1:1,2016-09-21T12:00:00Z,25.5560,-81.1690,1.5,14.86,1111122 